Skip Page Navigation
NASA JPL Caltech
NASA Logo - Jet Propulsion Laboratory + View the NASA Portal
+ Center for Near-Earth Object Studies
JPL Home Earth Solar System Stars & Galaxies Technology
JPL Solar System Dynamics
BODIES ORBITS EPHEMERIDES TOOLS PHYSICAL DATA DISCOVERY FAQ SITE MAP
IMPORTANT: The SSD Announcement email list is now available. Major changes are coming in the near future, including possible hostname and/or URL changes. To be notified of such changes, subscribe to this email list.

Please visit this page for more details.


JPL Small-Body Database Browser
Search: [ help ]  
71466 (2000 BB10)
Classification: Outer Main-belt Asteroid          SPK-ID: 2071466
Ephemeris | Orbit Diagram | Orbital Elements | Mission Design | Physical Parameters | Discovery Circumstances | Close-Approach Data ]

[ show orbit diagram ]
Orbital Elements at Epoch 2458600.5 (2019-Apr-27.0) TDB
Reference: JPL 21 (heliocentric ecliptic J2000)
 Element Value Uncertainty (1-sigma)   Units 
e .162103817408403 5.091e-08  
a 3.200933928800805 2.7389e-08 au
q 2.682050319670117 1.6767e-07 au
i 2.312959999160529 5.649e-06 deg
node 135.7123114601082 0.00011912 deg
peri 196.3375919107939 0.00012008 deg
M 289.214370705309 1.4885e-05 deg
tp 2459011.797517544835
(2020-Jun-11.29751754)
8.8734e-05 TDB
period 2091.76788836213
5.73
2.6847e-05
7.35e-08
d
yr
n .1721032252205969 2.2089e-09 deg/d
Q 3.719817537931492 3.1829e-08 au
  Orbit Determination Parameters
   # obs. used (total)      434  
   data-arc span      9244 days (25.31 yr)  
   first obs. used      1994-01-08  
   last obs. used      2019-05-01  
   planetary ephem.      DE431  
   SB-pert. ephem.      SB431-N16  
   condition code      0  
   norm. resid. RMS      .58327  
   source      ORB  
   producer      Otto Matic  
   solution date      2019-Jul-13 06:54:34  

Additional Information
 Earth MOID = 1.67074 au 
 Jupiter MOID = 1.64221 au 
 T_jup = 3.172 
[ show covariance matrix ]

Ephemeris | Orbit Diagram | Orbital Elements | Mission Design | Physical Parameters | Discovery Circumstances | Close-Approach Data ]

Physical Parameter Table
Parameter Symbol Value Units Sigma Reference Notes
absolute magnitude H 15.1   n/a MPO436283  
diameter diameter 5.028 km 0.508 urn:nasa:pds:neowise_diameters_albedos::2.0[mainbelt] (http://adsabs.harvard.edu/abs/2011ApJ...741...68M)  
geometric albedo albedo 0.064   0.024 urn:nasa:pds:neowise_diameters_albedos::2.0[mainbelt] (http://adsabs.harvard.edu/abs/2011ApJ...741...68M)  

71466 (2000 BB10)          Discovered 2000-Jan-26 by Spacewatch at Kitt Peak
Reference: 20031109/Numbers.arcLast Updated: 2004-04-19

[ show close-approach data ]
Alternate Designations
 2000 BB10 = 1994 AX8 
Ephemeris | Orbit Diagram | Orbital Elements | Mission Design | Physical Parameters | Discovery Circumstances | Close-Approach Data ]
ABOUT SSD CREDITS/AWARDS PRIVACY/COPYRIGHT GLOSSARY LINKS
FirstGov 2019-Oct-14 17:14 UT
(server date/time)  
NASA Home Page
Site Manager:   Ryan S. Park
Webmaster  Alan B. Chamberlin